Hourly Data Report for October 09, 2014

All times are specified in Local Standard Time (LST). Add 1 hour to adjust for Daylight Saving Time where and when it is observed.

SAINT JOHN A
NEW BRUNSWICK

45°18'58.000" N
65°53'24.000" W
108.80 m
8104901
71609
YSJ

Download Data

Hourly Data (October 2014)
Hourly Data Report for October 9, 2014
Temp Definition
°C
Dew Point Temp Definition
°C
Rel Hum Definition
%
Wind Dir Definition
10's deg

Wind Spd Definition
km/h
Visibility Definition
km
Stn Press Definition
kPa
Hmdx Definition


Wind Chill Definition


Weather Definition


TIME
00:00 Legend Double Dagger 12.9 12.9 100 21 10 1.6 99.36     Fog
01:00 Legend Double Dagger 12.6 12.6 100 23 9 1.2 99.40     Fog
02:00 Legend Double Dagger 11.9 11.9 100 22 3 1.2 99.40     Fog
03:00 Legend Double Dagger 10.5 10.5 100 19 5 0.8 99.40     Fog
04:00 Legend Double Dagger 8.6 8.6 100 32 3 0.8 99.41     Fog
05:00 Legend Double Dagger 9.4 9.4 100 21 8 12.9 99.49     Mostly Cloudy
06:00 Legend Double Dagger 9.1 9.1 100 20 9 24.1 99.54     LegendNANA
07:00 Legend Double Dagger 9.1 9.1 100 18 4 24.1 99.55     LegendNANA
08:00 Legend Double Dagger 10.2 8.8 91 21 7 24.1 99.60     Mostly Cloudy
09:00 Legend Double Dagger 10.6 7.9 83 23 12 24.1 99.65     LegendNANA
10:00 Legend Double Dagger 12.6 4.9 59 26 23 24.1 99.69     LegendNANA
11:00 Legend Double Dagger 13.9 2.9 47 27 21 24.1 99.65     Mainly Clear
12:00 Legend Double Dagger 14.1 4.5 52 21 32 24.1 99.62     LegendNANA
13:00 Legend Double Dagger 14.6 4.9 52 22 24 24.1 99.59     LegendNANA
14:00 Legend Double Dagger 15.4 3.9 46 23 23 24.1 99.60     Mostly Cloudy
15:00 Legend Double Dagger 13.5 1.6 44 23 23 24.1 99.61     LegendNANA
16:00 Legend Double Dagger 13.6 5.3 57 22 22 24.1 99.63     LegendNANA
17:00 Legend Double Dagger 12.0 6.3 68 22 20 24.1 99.65     Mainly Clear
18:00 Legend Double Dagger 10.3 6.7 78 21 13 24.1 99.67     LegendNANA
19:00 Legend Double Dagger 9.4 6.3 81 22 15 24.1 99.71     LegendNANA
20:00 Legend Double Dagger 10.0 7.3 83 23 11 24.1 99.74     Mostly Cloudy
21:00 Legend Double Dagger 10.4 8.0 85 23 12 24.1 99.76     LegendNANA
22:00 Legend Double Dagger 10.9 6.1 72 23 19 24.1 99.76     LegendNANA
23:00 Legend Double Dagger 9.6 6.3 80 23 12 24.1 99.77     Mainly Clear

Notes on Data Quality.

Legend

  • E = Estimated
  • M = Missing
  • NA = Not Available
  • ‡ = Partner data that is not subject to review by the National Climate Archives
Date modified: